Regional Weather Roundup
Issued by NWS

Home | Current Version | Previous Version | Text Only | Print | Product List | Glossary Off
Versions: 1 2 3 4 5 6 7 8 9 10 11 12 13 14 15 16 17 18 19 20 21 22 23 24 25 26 27 28 29 30 31 32 33 34 35 36 37 38 39 40 41 42 43 44 45 46 47 48 49 50

000
ASUS43 KFSD 300202
RWRSD

WEATHER ROUNDUP FOR SOUTH DAKOTA
NATIONAL WEATHER SERVICE SIOUX FALLS SD
900 PM CDT FRI JUL 29 2016

NOTE: "FAIR" INDICATES FEW OR NO CLOUDS BELOW 12,000 FEET WITH NO
SIGNIFICANT WEATHER AND/OR OBSTRUCTIONS TO VISIBILITY.


SDZ001>005-009-010-012>017-300300-
NORTHWEST AND NORTH CENTRAL SOUTH DAKOTA

CITY           SKY/WX    TMP DP  RH WIND       PRES   REMARKS
BUFFALO          N/A     79  52  38 E7        29.93R
FAITH            N/A     74  56  53 SE10      29.98F
MOBRIDGE       PTCLDY    77  59  53 SW5       29.96S
$$

SDZ012>016-024>037-041>051-057-063-072>074-300300-
SOUTHWEST AND SOUTH CENTRAL SOUTH DAKOTA

CITY           SKY/WX    TMP DP  RH WIND       PRES   REMARKS
RAPID CTY ARPT CLEAR     73  56  54 SW8       30.02R
PIERRE         MOCLDY    76  55  48 S14       29.96F
CUSTER         CLOUDY    65  52  62 E7        30.14F
ELLSWORTH AFB  CLEAR     74  56  52 S5        30.01R
PHILIP         CLEAR     77  60  55 SE9       29.98R
PINE RIDGE     PTCLDY    71  62  73 E6        30.02R
WINNER         FAIR      73  61  65 SE7       30.02S
$$

SDZ004>011-016>023-039-040-300300-
NORTHEAST SOUTH DAKOTA

CITY           SKY/WX    TMP DP  RH WIND       PRES   REMARKS
ABERDEEN       CLOUDY    73  63  70 SE6       29.99
WATERTOWN      CLEAR     71  57  61 S6        30.04R
BROOKINGS      CLEAR     70  58  65 SE7       30.05R
SISSETON         N/A     70  61  73 S6        30.01R
$$

SDZ017-020-022-023-036>040-048>070-300300-
SOUTHEAST SOUTH DAKOTA

CITY           SKY/WX    TMP DP  RH WIND       PRES   REMARKS
SIOUX FALLS    PTCLDY    70  56  61 E8        30.04R
HURON          CLEAR     74  54  49 SE8       30.00R
CHAMBERLAIN    CLOUDY    74  59  60 S7        30.02S
MITCHELL       PTCLDY    73  56  54 SE8       30.03R
YANKTON        CLEAR     72  57  60 E6        30.01R
$$

ABBREVIATIONS USED IN REMARKS
   TC - TEMPERATURE IN CELSIUS
  WCI - WIND CHILL INDEX
   HX - HEAT INDEX
  VSB - VISIBILITY





USA.gov is the U.S. government's official web portal to all federal, state and local government web resources and services.